This is the latest recevied weather packets stored in our database for station/object SR9SMR. If no packets are shown the sender has not sent any weather packets the latest 1 day(s).
| Time | Temp. | Humidity | Pressure | Rain* | Wind** | Luminosity | Snow |
|---|---|---|---|---|---|---|---|
| 1777972953 | 17.22° C | 100% | 896.5 hPa | - | 9.83 m/s, 213° | - | - |
| 1777972833 | 17.22° C | 100% | 896.7 hPa | - | 10.73 m/s, 212° | - | - |
| 1777972736 | 16.67° C | 100% | 896.3 hPa | - | 11.18 m/s, 215° | - | - |
| 1777972615 | 17.22° C | 100% | 896.8 hPa | - | 9.83 m/s, 219° | - | - |
| 1777972494 | 17.22° C | 100% | 896.8 hPa | - | 9.83 m/s, 212° | - | - |
| 1777972434 | 17.22° C | 100% | 896.8 hPa | - | 9.39 m/s, 211° | - | - |
| 1777972317 | 17.22° C | 100% | 896.5 hPa | - | 10.73 m/s, 214° | - | - |
| 1777972196 | 16.67° C | 100% | 896.5 hPa | - | 11.62 m/s, 221° | - | - |
| 1777972075 | 16.67° C | 100% | 896.5 hPa | - | 12.07 m/s, 222° | - | - |
| 1777971951 | 16.67° C | 100% | 896.1 hPa | - | 12.52 m/s, 218° | - | - |
| 1777971766 | 17.22° C | 100% | 896.2 hPa | - | 11.18 m/s, 224° | - | - |
| 1777971571 | 16.67° C | 100% | 896.8 hPa | - | 11.18 m/s, 213° | - | - |
| 1777971260 | 16.67° C | 100% | 896.5 hPa | - | 11.18 m/s, 209° | - | - |
| 1777970951 | 16.67° C | 100% | 896.4 hPa | - | 11.18 m/s, 220° | - | - |
| 1777970856 | 16.67° C | 100% | 896.4 hPa | - | 10.73 m/s, 223° | - | - |
| 1777970553 | 16.67° C | 100% | 896.5 hPa | - | 12.07 m/s, 220° | - | - |
| 1777970360 | 16.11° C | 100% | 896 hPa | - | 12.52 m/s, 219° | - | - |
| 1777970052 | 16.67° C | 100% | 896.1 hPa | - | 12.96 m/s, 215° | - | - |
| 1777969741 | 16.11° C | 100% | 896 hPa | - | 13.41 m/s, 216° | - | - |
| 1777969684 | 16.11° C | 100% | 896 hPa | - | 12.52 m/s, 216° | - | - |
| 1777969563 | 16.67° C | 100% | 896.1 hPa | - | 12.07 m/s, 215° | - | - |
| 1777969439 | 16.67° C | 100% | 896.1 hPa | - | 12.96 m/s, 216° | - | - |
| 1777969321 | 16.11° C | 100% | 896.1 hPa | - | 13.41 m/s, 218° | - | - |
| 1777969201 | 16.67° C | 100% | 896.3 hPa | - | 11.62 m/s, 219° | - | - |
| 1777969137 | 16.67° C | 100% | 896.8 hPa | - | 11.62 m/s, 219° | - | - |
* Rain since midnight (hover to see other rain measurements)
** Current wind speed in m/s (hover to see current wind gust speed)